Weather History for KBOS - November, 2013

Change the Weather History Date:

Monday, November 25, 2013

  Actual Average Record
Temperature  
Mean Temperature 26 °F 42 °F  
Max Temperature 34 °F 48 °F 70 °F (1979)
Min Temperature 18 °F 35 °F 13 °F (1938)
Degree Days  
Heating Degree Days 39 23  
Month to date heating degree days 518 488  
Since 1 July heating degree days 870 935  
Cooling Degree Days 0 0  
Month to date cooling degree days 1 0  
Year to date cooling degree days 920 747  
Moisture  
Dew Point 0 °F    
Average Humidity 34    
Maximum Humidity 53    
Minimum Humidity 15    
Precipitation  
Precipitation 0.00 in 0.14 in 2.76 in (1983)
Month to date precipitation 0.83 3.31  
Year to date precipitation 33.85 39.31  
Snow  
Snow 0.00 in 0.10 in 4.70 in (1938)
Month to date snowfall T 0.8  
Since 1 July snowfall T 0.8  
Since 1 September snowfall T 0.8  
Snow Depth -    
Sea Level Pressure  
Sea Level Pressure 30.32 in    
Wind  
Wind Speed 13 mph (West)    
Max Wind Speed 22 mph    
Max Gust Speed 31 mph    
Visibility 10 miles    
Events      
T = Trace of Precipitation, MM = Missing Value Source: NWS Daily Summary

Daily Weather History Graph

Daily Weather History Graph

Search for Another Location

Airport or City:

Trip Planner

Search our weather history database for the weather conditions in past years. The results will help you decide how hot, cold, wet, or windy it might be!

Date:

Astronomy

Nov. 25, 2013 Rise Set
Actual Time 6:47 AM EST 4:14 PM EST
Civil Twilight 6:16 AM EST 4:45 PM EST
Nautical Twilight 5:41 AM EST 5:20 PM EST
Astronomical Twilight 5:07 AM EST 5:53 PM EST
Moon 11:41 PM EST (11/25) 11:58 AM EST (11/25)
Length of Visible Light 10h 29m
Length of Day
9h 27m
Waning Gibbous, 51% of the Moon is Illuminated
Nov 25
Waning Gibbous
Nov 25
Last Quarter
Dec 2
New
Dec 9
First Quarter
Dec 17
Full

Hourly Weather History & Observations

Time (EST) Temp. Windchill Dew Point Humidity Pressure Visibility Wind Dir Wind Speed Gust Speed Precip Events Conditions
12:54 AM 21.0 °F 8.1 °F -4.0 °F 33% 30.21 in 10.0 mi West 13.8 mph 25.3 mph N/A   Clear
1:54 AM 19.9 °F 4.3 °F -4.0 °F 35% 30.22 in 10.0 mi West 19.6 mph 28.8 mph N/A   Clear
2:54 AM 19.9 °F 6.7 °F -5.1 °F 33% 30.24 in 10.0 mi WNW 13.8 mph 20.7 mph N/A   Clear
3:54 AM 19.0 °F 5.6 °F -2.9 °F 38% 30.27 in 10.0 mi West 13.8 mph 20.7 mph N/A   Clear
4:54 AM 19.0 °F 6.8 °F -2.0 °F 40% 30.29 in 10.0 mi West 11.5 mph 20.7 mph N/A   Clear
5:54 AM 19.0 °F 4.5 °F -4.0 °F 36% 30.30 in 10.0 mi WNW 16.1 mph - N/A   Partly Cloudy
6:54 AM 19.0 °F 5.6 °F -2.9 °F 38% 30.33 in 10.0 mi West 13.8 mph - N/A   Scattered Clouds
7:54 AM 19.9 °F 5.7 °F -4.0 °F 35% 30.35 in 10.0 mi WNW 16.1 mph 21.9 mph N/A   Partly Cloudy
8:54 AM 21.9 °F 11.0 °F -7.1 °F 28% 30.36 in 10.0 mi WNW 10.4 mph 25.3 mph N/A   Clear
9:54 AM 24.1 °F 12.5 °F -9.0 °F 23% 30.37 in 10.0 mi WNW 12.7 mph 20.7 mph N/A   Partly Cloudy
10:54 AM 27.0 °F 15.2 °F -9.0 °F 21% 30.35 in 10.0 mi West 15.0 mph - N/A   Partly Cloudy
11:54 AM 30.0 °F 20.0 °F -9.9 °F 17% 30.35 in 10.0 mi WNW 12.7 mph 19.6 mph N/A   Partly Cloudy
12:54 PM 32.0 °F 21.6 °F -11.0 °F 15% 30.34 in 10.0 mi West 15.0 mph - N/A   Scattered Clouds
1:54 PM 33.1 °F 24.4 °F -6.0 °F 19% 30.33 in 10.0 mi West 11.5 mph - N/A   Partly Cloudy
2:54 PM 33.1 °F 24.9 °F -0.0 °F 24% 30.32 in 10.0 mi West 10.4 mph - N/A   Partly Cloudy
3:54 PM 33.1 °F 25.5 °F 1.9 °F 27% 30.34 in 10.0 mi WSW 9.2 mph - N/A   Partly Cloudy
4:54 PM 32.0 °F 24.2 °F 5.0 °F 32% 30.35 in 10.0 mi SW 9.2 mph - N/A   Partly Cloudy
5:54 PM 30.9 °F 22.8 °F 6.1 °F 35% 30.35 in 10.0 mi SW 9.2 mph - N/A   Clear
6:54 PM 30.9 °F 20.2 °F 7.0 °F 37% 30.35 in 10.0 mi SW 15.0 mph - N/A   Clear
7:54 PM 30.9 °F 20.7 °F 9.0 °F 40% 30.34 in 10.0 mi SW 13.8 mph 21.9 mph N/A   Partly Cloudy
8:54 PM 30.9 °F 22.8 °F 9.0 °F 40% 30.34 in 10.0 mi SSW 9.2 mph - N/A   Mostly Cloudy
9:54 PM 30.0 °F 20.5 °F 10.9 °F 45% 30.31 in 10.0 mi SW 11.5 mph - N/A   Mostly Cloudy
10:54 PM 30.9 °F 23.5 °F 15.1 °F 52% 30.29 in 10.0 mi SSW 8.1 mph - N/A   Mostly Cloudy
11:54 PM 32.0 °F 23.6 °F 16.0 °F 52% 30.28 in 10.0 mi SW 10.4 mph - N/A   Mostly Cloudy